Regional Weather Roundup
Issued by NWS

Home | Current Version | Previous Version | Text Only | Print | Product List | Glossary Off
Versions: 1 2 3 4 5 6 7 8 9 10 11 12 13 14 15 16 17 18 19 20 21 22 23 24 25 26 27 28 29 30 31 32 33 34 35 36 37 38 39 40 41 42 43 44 45 46 47 48 49 50

000
ASUS43 KDTX 121610
RWRMI
MICHIGAN HOURLY REGIONAL WEATHER ROUNDUP
NATIONAL WEATHER SERVICE DETROIT/PONTIAC MI
ISSUED BY NATIONAL WEATHER SERVICE GRAND RAPIDS MI
1100 AM EST TUE DEC 12 2017

NOTE: "FAIR" INDICATES FEW OR NO CLOUDS BELOW 12,000 FEET WITH NO
SIGNIFICANT WEATHER AND/OR OBSTRUCTION TO VISIBILITY.

MIZ047>049-052>055-059>063-066>070-074>076-081>083-121700-
SOUTHEAST LOWER MICHIGAN

CITY           SKY/WX    TMP DP  RH WIND       PRES   REMARKS
ADRIAN         PTSUNNY   20   7  57 N15G23    29.90R WCI   6
ANN ARBOR      MOSUNNY   20   6  55 NW17G23   29.86S WCI   5
BAD AXE        CLOUDY    13   3  65 NW20G30   29.80S WCI  -5
DETROIT CITY   MOSUNNY   20   2  45 NW18G29   29.85R WCI   5
DETROIT        PTSUNNY   21   8  57 NW16      29.86R WCI   7
FLINT          SUNNY     16   1  51 NW22G31   29.86S WCI  -2
GROSSE ILE     CLOUDY    20   8  59 N16       29.85S WCI   6
HILLSDALE      PTSUNNY   19   7  58 NW16G22   29.87S WCI   5
HOWELL         CLOUDY    17   9  72 N13G20    29.86R WCI   3

CITY           SKY/WX    TMP DP  RH WIND       PRES   REMARKS
JACKSON        LGT SNOW  18  10  71 W14G21    29.89R WCI   4
LANSING        PTSUNNY   18  10  71 NW16      29.91R WCI   3
MONROE         MOSUNNY   20   4  48 NW16G22   29.87S WCI   6
MT. CLEMENS    MOSUNNY   18   2  49 NW22G29   29.81R WCI   1
PONTIAC        MOSUNNY   16   4  59 NW26G35   29.81S WCI  -3
PORT HOPE        N/A     16   7  67 NW23G38   29.77R WCI  -2
TRI CITIES     SUNNY     17   2  51 NW25G33   29.87S WCI  -1
YPSILANTI      PTSUNNY   21   9  59 NW16G28   29.87R WCI   7
$$
MIZ043>046-050>051-056>058-064>065-071>073-077>080-121700-
SOUTHWEST LOWER MICHIGAN

CITY           SKY/WX    TMP DP  RH WIND       PRES   REMARKS
BATTLE CREEK   MOSUNNY   20   4  50 N23G29    29.92S WCI   3
BENTON HARBOR  HVY SNOW  21  16  81 NW12G24   30.00R VSB 1/4 WCI   9
HOLLAND        SNOW      18  13  80 N12G21    29.98R VSB 1/2 WCI   5
GRAND RAPIDS   PTSUNNY   19   7  59 NW15G25   29.94R WCI   5
KALAMAZOO      CLOUDY    20  10  65 N21G26    29.95R WCI   4
MUSKEGON       LGT SNOW  19  12  74 N16G29    29.98S VSB 1   WCI   4
STURGIS        CLOUDY    19  12  72 N14       29.94S WCI   6
$$
MIZ016>042-121700-
NORTHERN LOWER MICHIGAN

CITY           SKY/WX    TMP DP  RH WIND       PRES   REMARKS
ALPENA         LGT SNOW   9   4  80 NW15G26   29.82R VSB 3/4 WCI  -8
BEAVER ISLAND  PTSUNNY   14   2  60 N10G20    29.94S WCI   1
BELLAIRE       LGT SNOW  14  10  87 N6        29.93S WCI   5
CADILLAC       CLOUDY    13   5  70 NW10G18   29.85R WCI   0
CHARLEVOIX     LGT SNOW  14   8  78 N20       29.95S WCI  -4
GAYLORD        CLOUDY     8  -2  63 NW8G18    29.83S WCI  -4
HOUGHTON LAKE  CLOUDY    11   2  67 N16G28    29.85S HAZE    WCI  -6
MANISTEE       SNOW      18  10  73 NW14G29   29.95S VSB 1/2 WCI   4
OSCODA         PTSUNNY   12  -2  52 NW24G37   29.81R WCI  -8
PELLSTON       CLOUDY    10   2  69 N17G23    29.92S WCI  -8
TRAVERSE CITY  FLURRIES  17   3  54 N16G31    29.92S WCI   2
LUDINGTON      CLOUDY    18   7  62 NW18G26   29.97R WCI   2
$$
MIZ007>008-015-121700-
EASTERN UPPER MICHIGAN

CITY           SKY/WX    TMP DP  RH WIND       PRES   REMARKS
KINROSS        MOSUNNY    4  -5  66 N20       29.89F WCI -17
S. S. MARIE    SUNNY      2  -8  63 N14G22    29.91S WCI -16
$$
MIZ004>006-011>014-085-121700-
CENTRAL UPPER MICHIGAN

CITY           SKY/WX    TMP DP  RH WIND       PRES   REMARKS
MANISTIQUE     LGT SNOW  10   2  72 N7        29.96S WCI  -1
ESCANABA       SUNNY     14   1  56 NW15G23   30.00F WCI  -1
MENOMINEE      FLURRIES  14   4  64 N9G21     30.05F WCI   2
SAWYER-GWINN   FLURRIES  10   3  72 NW16      29.95F WCI  -7
$$
MIZ001>003-009>011-084-121700-
WESTERN UPPER MICHIGAN

CITY           SKY/WX    TMP DP  RH WIND       PRES   REMARKS
IRON MOUNTAIN  CLOUDY    11   4  73 NW9       29.98F WCI  -2
HOUGHTON       LGT SNOW  11   2  67 NW9       29.99S WCI  -2
COPPER HARBOR    N/A     13   8  81 NE15G24   30.02S WCI  -3
IRONWOOD       LGT SNOW   7   3  84 W9        30.05S VSB 1   WCI  -7
$$

ABBREVIATIONS USED IN REMARKS
   TC - TEMPERATURE IN CELSIUS
  WCI - WIND CHILL INDEX
   HX - HEAT INDEX
  VSB - VISIBILITY





USA.gov is the U.S. government's official web portal to all federal, state and local government web resources and services.